Fairmont, MN

5:59 AM CST on February 20, 2017 (GMT -0600)
Fairmont Municipal

Weather History for KFRM - May, 2014

Change the Weather History Date:

Sunday, May 25, 2014

  Actual Average Record
Temperature  
Mean Temperature 66 °F -  
Max Temperature 78 °F 70 °F 97 °F (1967)
Min Temperature 53 °F 51 °F 34 °F (1992)
Growing Degree Days 16 (Base 50)    
Moisture  
Dew Point 53 °F    
Average Humidity 60    
Maximum Humidity 73    
Minimum Humidity 40    
Precipitation  
Precipitation 0.00 in - - ()
Sea Level Pressure  
Sea Level Pressure 29.99 in    
Wind  
Wind Speed 10 mph (SSE)    
Max Wind Speed 20 mph    
Max Gust Speed 23 mph    
Averages and records for this station are not official NWS values.
T = Trace of Precipitation, MM = Missing Value Source: NWS Daily Summary

Daily Weather History Graph

Daily Weather History Graph

Search for Another Location

Airport or City:

Trip Planner

Search our weather history database for the weather conditions in past years. The results will help you decide how hot, cold, wet, or windy it might be!

Date:

Astronomy

May. 25, 2014 Rise Set
Actual Time 5:43 AM CDT 8:46 PM CDT
Civil Twilight 5:09 AM CDT 9:20 PM CDT
Nautical Twilight 4:25 AM CDT 10:04 PM CDT
Astronomical Twilight 3:33 AM CDT 10:57 PM CDT
Moon 3:55 AM CDT (5/25) 5:42 PM CDT (5/25)
Length of Visible Light 16h 11m
Length of Day
15h 02m
Waning Crescent, 10% of the Moon is Illuminated
May 25
Waning Crescent
May 28
New
Jun 5
First Quarter
Jun 12
Full
Jun 19
Last Quarter

Hourly Weather History & Observations

Time (CDT) Temp. Dew Point Humidity Pressure Visibility Wind Dir Wind Speed Gust Speed Precip Events Conditions
12:15 AM 64.4 °F 39.2 °F 40% 30.06 in - SSE 10.4 mph - N/A   Clear
12:35 AM 62.6 °F 39.2 °F 42% 30.06 in - SSE 9.2 mph - N/A   Clear
1:15 AM 59.0 °F 39.2 °F 48% 30.07 in - South 6.9 mph - N/A   Clear
1:35 AM 57.2 °F 39.2 °F 51% 30.06 in - South 6.9 mph - N/A   Clear
1:55 AM 57.2 °F 39.2 °F 51% 30.06 in - SSE 6.9 mph - N/A   Clear
2:15 AM 57.2 °F 39.2 °F 51% 30.06 in - South 6.9 mph - N/A   Clear
2:35 AM 57.2 °F 39.2 °F 51% 30.06 in - South 6.9 mph - N/A   Clear
2:55 AM 57.2 °F 41.0 °F 55% 30.06 in - SSE 6.9 mph - N/A   Clear
3:15 AM 55.4 °F 41.0 °F 58% 30.05 in - South 6.9 mph - N/A   Clear
3:35 AM 55.4 °F 41.0 °F 58% 30.05 in - SSE 5.8 mph - N/A   Clear
3:55 AM 55.4 °F 42.8 °F 63% 30.05 in - SSE 5.8 mph - N/A   Clear
4:15 AM 55.4 °F 41.0 °F 58% 30.05 in - SSE 4.6 mph - N/A   Clear
4:35 AM 53.6 °F 41.0 °F 62% 30.05 in - SSE 4.6 mph - N/A   Clear
4:55 AM 53.6 °F 42.8 °F 67% 30.05 in - SE 5.8 mph - N/A   Clear
5:15 AM 53.6 °F 44.6 °F 72% 30.04 in - SE 5.8 mph - N/A   Clear
5:35 AM 55.4 °F 44.6 °F 67% 30.03 in - SE 6.9 mph - N/A   Clear
5:55 AM 55.4 °F 44.6 °F 67% 30.03 in - SE 6.9 mph - N/A   Clear
6:15 AM 55.4 °F 46.4 °F 72% 30.03 in - SE 8.1 mph - N/A   Clear
6:35 AM 57.2 °F 46.4 °F 67% 30.03 in - SE 9.2 mph - N/A   Clear
6:55 AM 59.0 °F 48.2 °F 67% 30.03 in - SSE 10.4 mph - N/A   Clear
7:15 AM 60.8 °F 48.2 °F 63% 30.04 in - SSE 11.5 mph - N/A   Scattered Clouds
7:35 AM 62.6 °F 50.0 °F 63% 30.04 in - SSE 9.2 mph - N/A   Overcast
7:55 AM 64.4 °F 51.8 °F 64% 30.04 in - SE 8.1 mph - N/A   Overcast
8:15 AM 64.4 °F 51.8 °F 64% 30.04 in - SSE 12.7 mph - N/A   Overcast
8:35 AM 64.4 °F 51.8 °F 64% 30.04 in - SSE 13.8 mph - N/A   Overcast
8:55 AM 66.2 °F 51.8 °F 60% 30.04 in - SSE 15.0 mph - N/A   Overcast
9:15 AM 66.2 °F 53.6 °F 64% 30.04 in - SSE 12.7 mph - N/A   Overcast
10:15 AM 69.8 °F 55.4 °F 60% 30.03 in - SSE 13.8 mph - N/A   Overcast
10:35 AM 69.8 °F 55.4 °F 60% 30.03 in - South 13.8 mph - N/A   Overcast
10:55 AM 71.6 °F 55.4 °F 57% 30.02 in - SSE 13.8 mph 20.7 mph N/A   Overcast
11:15 AM 71.6 °F 57.2 °F 60% 30.01 in - South 15.0 mph - N/A   Overcast
11:35 AM 71.6 °F 57.2 °F 60% 30.01 in - South 13.8 mph - N/A   Overcast
11:55 AM 73.4 °F 57.2 °F 57% 30.01 in - South 16.1 mph 23.0 mph N/A   Overcast
12:15 PM 73.4 °F 57.2 °F 57% 30.00 in - South 17.3 mph 21.9 mph N/A   Overcast
12:35 PM 73.4 °F 57.2 °F 57% 30.00 in - South 19.6 mph - N/A   Overcast
12:55 PM 73.4 °F 57.2 °F 57% 29.99 in - South 15.0 mph 21.9 mph N/A   Overcast
1:15 PM 75.2 °F 57.2 °F 53% 29.98 in - South 16.1 mph 23.0 mph N/A   Overcast
1:35 PM 75.2 °F 57.2 °F 53% 29.98 in - South 17.3 mph - N/A   Mostly Cloudy
1:55 PM 75.2 °F 59.0 °F 57% 29.97 in - South 16.1 mph - N/A   Overcast
2:15 PM 75.2 °F 59.0 °F 57% 29.97 in - South 16.1 mph - N/A   Overcast
2:35 PM 75.2 °F 57.2 °F 53% 29.97 in - South 15.0 mph - N/A   Overcast
2:55 PM 75.2 °F 59.0 °F 57% 29.97 in - South 17.3 mph - N/A   Mostly Cloudy
3:15 PM 75.2 °F 59.0 °F 57% 29.96 in - South 12.7 mph 21.9 mph N/A   Overcast
3:35 PM 77.0 °F 59.0 °F 54% 29.96 in - South 15.0 mph 20.7 mph N/A   Overcast
3:55 PM 75.2 °F 59.0 °F 57% 29.96 in - South 17.3 mph - N/A   Overcast
4:35 PM 77.0 °F 59.0 °F 54% 29.94 in - South 13.8 mph - N/A   Mostly Cloudy
4:55 PM 77.0 °F 59.0 °F 54% 29.93 in - South 13.8 mph - N/A   Mostly Cloudy
5:15 PM 75.2 °F 59.0 °F 57% 29.92 in - SSE 17.3 mph - N/A   Overcast
5:35 PM 78.8 °F 59.0 °F 51% 29.91 in - SSE 16.1 mph 23.0 mph N/A   Mostly Cloudy
5:55 PM 77.0 °F 60.8 °F 57% 29.91 in - SSE 17.3 mph 23.0 mph N/A   Mostly Cloudy
6:15 PM 77.0 °F 59.0 °F 54% 29.91 in - South 13.8 mph - N/A   Mostly Cloudy
6:35 PM 78.8 °F 59.0 °F 51% 29.90 in - South 15.0 mph - N/A   Mostly Cloudy
6:55 PM 78.8 °F 60.8 °F 54% 29.90 in - South 13.8 mph - N/A   Mostly Cloudy
7:15 PM 78.8 °F 60.8 °F 54% 29.90 in - South 12.7 mph 20.7 mph N/A   Mostly Cloudy
7:35 PM 77.0 °F 60.8 °F 57% 29.90 in - South 16.1 mph - N/A   Mostly Cloudy
7:55 PM 75.2 °F 60.8 °F 61% 29.91 in - South 16.1 mph - N/A   Partly Cloudy
8:15 PM 75.2 °F 60.8 °F 61% 29.92 in - South 16.1 mph - N/A   Clear
8:35 PM 75.2 °F 60.8 °F 61% 29.93 in - South 12.7 mph - N/A   Clear
8:55 PM 73.4 °F 60.8 °F 65% 29.93 in - SSE 11.5 mph - N/A   Clear
9:15 PM 73.4 °F 60.8 °F 65% 29.94 in - SSE 10.4 mph - N/A   Clear
9:35 PM 71.6 °F 60.8 °F 69% 29.94 in - South 9.2 mph - N/A   Clear
9:55 PM 71.6 °F 59.0 °F 64% 29.96 in - South 9.2 mph - N/A   Clear
10:15 PM 69.8 °F 59.0 °F 68% 29.96 in - SSE 8.1 mph - N/A   Clear
10:35 PM 69.8 °F 59.0 °F 68% 29.97 in - SSE 6.9 mph - N/A   Clear
10:55 PM 69.8 °F 60.8 °F 73% 29.96 in - SSE 6.9 mph - N/A   Clear
11:15 PM 69.8 °F 60.8 °F 73% 29.95 in - South 9.2 mph - N/A   Clear
11:35 PM 69.8 °F 60.8 °F 73% 29.94 in - South 9.2 mph - N/A   Clear
11:55 PM 69.8 °F 60.8 °F 73% 29.95 in - South 10.4 mph - N/A   Clear